CZ-6A DEB, 55542

Orbit data source: Space-Track

CZ-6A DEB, 55542 is space debris in SSO originally from a launch on Fri, 11 Nov 2022 UTC launched from the Taiyaun Space Center, China (TSC). Debris objects in space refer to the collection of defunct objects orbiting the Earth. Examples of debris include non-operational satellites, rocket bodies, and fragments generated from explosions, collisions, or faulty payload assembly.

Loading next visibility...
Identifier
55542, 2022-151YQ
Orbit
SSO
Country
Flag of CNCN / PRC
Related business
Manufacturer
SAST
Mission
Spacecraft
Bus & Motor
Unknown
Mass
Unknown
Launch date (UTC)
2022-11-11 (4 years ago)
Launch vehicle
Unknown
Launch site
Taiyaun Space Center, China (TSC)
Object type
Payload
Rocket body
Debris
Shape & HBR
Unknown shape, 0.1 m
Radar Cross Section
Medium (>0.1 m² and <1 m²)

Expand to show TLE details & history
Last TLE update: 2 days ago

TLE from 2 days ago
0 CZ-6A DEB
1 55542U 22151YQ  26171.02705235  .00001750  00000-0  77643-3 0  9996
2 55542  98.7976 193.1505 0013259 223.2368 136.7771 14.24303358181217
Epoch: 2026-06-20T00:38Z
TLE epoch observation values (Epoch: 2026-06-20T00:38:57.323Z)
Latitude
0.00004°
Longitude
-84.83593°
Altitude
820.706 km
Speed
7.439 km/s
True Right ascension
12h 52m 36s
True Declination
0° 00' 00"
Sunlit
Object was in daylight at epoch
Visualization orbit readout
Latitude
Unknown
Longitude
Unknown
Altitude
Unknown
Speed
Unknown
Apparent Right ascension
Unknown
Apparent Declination
Unknown
Sunlit
N/A
Visualization observer readout
Local Sidereal Time
21:48:33
Azimuth
Unknown
Elevation
Unknown
Doppler factor
Unknown
Orbital elements
Apogee altitude
817.521 km
Perigee altitude
798.465 km
Semi-major axis
7,186.13 km
Eccentricity
0.00133
Inclination
98.7976°
RAAN
193.1505°
Arg. of periapsis
223.2368°
True anomaly
136.88103°
Mean anomaly
136.7771°
Eccentric anomaly
136.82908°
Mean motion
3.56287 °/min
Orbital period
101.04 mins
BSTAR
0.00077643
Loading maneuver chart data...
Computing Atmospheric mass density...
Loading historical data...
Loading historical data...
Loading historical data...
Loading historical data...
Loading historical data...
Loading historical data...
Loading historical data...

Documentation

Showing up to 5 results
|